User: anonymous   Login
Location: Caltech
(34.1382°N, 118.1253°W)
Time: 11:09:46
(UTC-07:00)
Language:

Cosmos 1943 Rocket - Orbit

View from above orbital plane
View from above orbital plane
View from above satellite
View from above satellite

Ground track
Ground track

The orbit data is extracted from the following two-line orbital elements,

1 19120U 88039B   15244.20749371 -.00000163  00000-0 -54638-4 0  9992
2 19120  71.0134 268.8075 0019749 114.8788 245.4393 14.19115574413460
Epoch (UTC): 01 September 2015 04:58:47
Eccentricity: 0.0019749
inclination: 71.0134°
perigee height: 814 km
apogee height: 842 km
right ascension of ascending node: 268.8075°
argument of perigee: 114.8788°
revolutions per day: 14.19115574
mean anomaly at epoch: 245.4393°
orbit number at epoch: 41346

The dashed part of the orbit path shows where the satellite is in the earth's shadow,  

DLR